Flag for United Kingdom Weather for the Past 2 Weeks in Kingston upon Hull, England, United Kingdom

Now
50 °F

Cool.


Feels Like: 46 °F
Forecast: 47 / 64 °F
Wind: 9 mph from Southeast

Location: Humberside

Current Time: May 6, 2016 at 1:15:26 AM

Latest Report: May 6, 2016 at 12:50 AM


Visibility: N/A

Pressure: 30.07 "Hg

Humidity: 67%

Dew Point: 39 °F

Location of Kingston upon HullLocation

Historic Weather in Kingston upon Hull — Graph

°F

Kingston upon Hull Temperature Yesterday

Maximum temperature yesterday: 68 °F (at 3:50 PM)
Minimum temperature yesterday: 41 °F (at 5:50 AM)
Average temperature yesterday: 56 °F

High & Low Weather Summary for the Past Weeks

 TemperatureHumidityPressure
High68 °F (May 5, 3:50 PM)100% (Apr 21, 2:50 AM)30.39 "Hg (Apr 21, 2:50 AM)
Low32 °F (Apr 21, 5:20 AM)38% (Apr 23, 3:20 PM)29.59 "Hg (Apr 29, 9:50 AM)
Average46 °F74%30.05 "Hg
* Reported Apr 21 12:20 AM — May 6 12:20 AM, Kingston upon Hull, Weather by CustomWeather, © 2016

Note: Actual official high and low records may vary slightly from our data, if they occured in-between our weather recording intervals... More about our weather records

Advertising

Kingston upon Hull Weather History for the Previous 24 Hours

Scroll right to see more
 ConditionsComfort  
Time TempWeatherWind HumidityBarometerVisibility
12:20 AM
Fri, May 6
50 °FCool.10 mph62%30.07 "HgN/A
11:50 PM
Thu, May 5
52 °FCool.10 mph58%30.07 "HgN/A
11:20 PM54 °FCool.9 mph54%30.07 "HgN/A
10:50 PM54 °FCool.12 mph54%30.07 "HgN/A
10:20 PM54 °FCool.13 mph58%30.07 "HgN/A
9:50 PM55 °FCool.12 mph63%30.07 "HgN/A
9:20 PM55 °FCool.12 mph72%30.07 "HgN/A
8:50 PM55 °FSunny.10 mph77%30.04 "Hg10 mi
8:20 PM59 °FSunny.10 mph63%30.04 "Hg10 mi
7:50 PM61 °FSunny.10 mph59%30.04 "Hg10 mi
7:20 PM61 °FSunny.9 mph59%30.04 "Hg10 mi
6:50 PM63 °FSunny.10 mph56%30.04 "Hg10 mi
6:20 PM64 °FSunny.14 mph52%30.04 "Hg10 mi
5:50 PM66 °FPassing clouds.12 mph49%30.04 "HgN/A
5:20 PM68 °FPassing clouds.12 mph40%30.07 "HgN/A
4:50 PM68 °FPassing clouds.12 mph40%30.07 "HgN/A
4:20 PM68 °FPassing clouds.12 mph40%30.07 "HgN/A
3:50 PM68 °FPassing clouds.12 mph40%30.07 "HgN/A
3:20 PM66 °FPassing clouds.10 mph43%30.07 "HgN/A
2:50 PM66 °FPassing clouds.12 mph43%30.09 "HgN/A
2:20 PM66 °FPassing clouds.12 mph43%30.09 "HgN/A
1:50 PM66 °FPassing clouds.15 mph43%30.09 "HgN/A
1:20 PM66 °FPassing clouds.13 mph43%30.12 "HgN/A
12:50 PM64 °FPassing clouds.10 mph46%30.12 "HgN/A
12:20 PM63 °FPassing clouds.10 mph45%30.12 "HgN/A
11:50 AM63 °FSunny.10 mph45%30.12 "Hg10 mi
11:20 AM61 °FSunny.12 mph48%30.15 "Hg10 mi
10:50 AM59 °FSunny.13 mph51%30.15 "Hg10 mi
10:20 AM59 °FPassing clouds.10 mph51%30.15 "HgN/A
9:50 AM55 °FSunny.10 mph59%30.15 "Hg10 mi
9:20 AM55 °FSunny.10 mph55%30.15 "Hg10 mi
8:50 AM52 °FSunny.12 mph62%30.15 "Hg10 mi
8:20 AM52 °FSunny.12 mph58%30.15 "Hg10 mi
7:50 AM50 °FSunny.12 mph62%30.15 "Hg10 mi
7:20 AM48 °FSunny.10 mph66%30.15 "Hg10 mi
6:50 AM46 °FSunny.10 mph71%30.15 "Hg10 mi
6:20 AM43 °FSunny.8 mph81%30.15 "Hg10 mi
5:50 AM41 °FClear.9 mph87%30.15 "Hg10 mi
5:20 AM43 °FQuite cool.8 mph81%30.15 "HgN/A
4:50 AM45 °FQuite cool.9 mph76%30.18 "HgN/A
4:20 AM45 °FQuite cool.9 mph76%30.18 "HgN/A
3:50 AM45 °FQuite cool.10 mph76%30.18 "HgN/A
3:20 AM48 °FCool.13 mph66%30.18 "HgN/A
2:50 AM48 °FCool.15 mph71%30.18 "HgN/A
2:20 AM50 °FCool.16 mph67%30.18 "HgN/A
1:50 AM50 °FCool.16 mph67%30.18 "HgN/A
1:20 AM50 °FCool.16 mph62%30.18 "HgN/A
Weather by CustomWeather, © 2016

See weather overviewHow to use our weather pages